Theta_e
303 304 304 304 304 304 304 304 303 303 304 303 304 304 304 304 304 304 304 304 304 304 303 303 303 304 304 304 303 305 306 305 305 305 304 303 304 304 304 305 305 304 304 305 304 306 305 306 307 304 307 309 307 308 308 311 316 319 323 322 323 324 323 324 323 320 320 317 312 307 306 312 309 303 304 305 305 305 307 308 308 308 308 309 309 308 306 306
304 304 304 304 304 303 303 303 303 303 303 304 304 304 304 304 304 305 305 305 304 304 304 303 304 303 303 303 303 305 305 305 305 304 303 304 304 304 304 304 305 305 305 304 304 305 306 307 307 305 308 309 306 308 309 308 314 324 323 320 324 326 323 321 321 318 315 312 309 304 302 306 304 299 304 307 304 304 309 310 310 311 309 309 308 307 307 306
304 304 304 304 303 303 303 303 303 303 304 304 304 304 304 304 305 304 304 305 305 304 304 303 303 303 303 303 303 305 305 305 306 304 304 304 304 304 304 304 304 305 305 304 304 305 307 308 305 305 309 309 306 307 311 309 312 321 319 320 325 325 321 314 314 314 310 310 309 304 301 301 296 294 301 304 302 301 305 305 308 312 309 307 305 304 304 303
303 304 303 303 303 303 303 303 304 304 304 304 304 305 305 305 305 305 304 304 304 305 304 303 303 303 303 302 304 306 306 307 306 304 304 304 304 305 304 304 304 305 305 304 305 304 306 306 303 306 309 308 308 307 310 310 309 314 316 322 323 316 316 308 305 308 305 307 307 303 303 302 294 292 296 301 307 303 297 297 297 302 303 301 299 299 299 299
303 303 303 303 303 303 303 304 304 304 304 304 306 306 306 306 306 306 305 304 304 305 304 303 303 303 303 304 306 306 307 311 307 303 304 304 304 305 305 304 304 305 305 304 304 304 304 304 304 309 311 307 308 307 308 307 307 313 313 316 314 311 313 304 299 303 302 303 305 303 305 301 292 290 290 297 308 301 293 292 291 294 297 296 296 295 295 295
303 303 303 302 303 303 303 304 304 304 304 306 307 306 307 306 306 306 305 305 304 305 305 303 303 304 304 306 308 307 309 310 305 303 304 304 304 305 305 304 304 305 304 304 304 303 304 304 305 310 312 308 306 306 306 304 305 312 311 307 304 305 308 300 297 302 302 304 305 302 299 294 292 292 288 290 294 291 289 290 291 292 292 293 293 292 293 292
304 303 303 303 303 303 303 304 304 304 304 306 307 306 307 306 307 305 305 305 304 305 304 303 303 304 305 306 307 307 309 307 302 304 304 304 305 305 305 304 304 305 304 304 303 305 306 306 307 310 312 308 306 305 306 306 307 310 309 304 300 299 300 296 296 298 300 302 298 296 296 292 296 297 289 287 288 287 289 289 290 291 291 291 290 290 291 290
303 303 303 303 303 303 304 304 304 304 304 306 307 306 306 307 307 306 305 305 304 305 304 303 303 304 307 307 308 310 308 304 302 304 304 305 305 305 305 304 304 304 304 303 303 304 306 306 306 307 309 307 305 306 305 307 310 309 307 303 299 297 296 294 295 295 295 295 293 294 295 291 293 293 289 287 288 286 288 289 289 290 289 289 289 289 289 289
304 303 303 303 303 303 303 303 304 304 304 305 306 306 306 307 307 306 305 304 304 304 303 303 304 306 309 307 309 311 305 302 303 304 304 305 305 305 304 304 304 304 303 303 302 303 304 305 305 305 307 306 304 306 307 307 308 308 306 302 299 298 296 297 297 296 296 294 296 297 294 291 290 291 290 287 287 287 287 288 288 289 288 288 288 288 288 288
304 303 303 303 303 303 303 304 304 304 304 305 306 307 307 307 306 306 304 304 304 304 304 305 306 308 308 307 309 309 304 303 304 303 304 305 304 304 304 304 304 304 304 303 303 302 303 304 303 302 305 306 305 306 307 307 308 305 303 300 298 299 298 299 299 297 298 296 297 300 296 293 291 293 295 288 286 287 286 288 287 287 287 287 287 287 287 287
304 303 303 303 303 303 303 304 304 304 305 305 307 308 307 306 305 305 304 304 304 304 305 306 307 307 305 306 308 306 303 304 304 303 304 304 305 305 304 305 304 304 303 303 303 302 303 302 300 300 303 305 305 307 306 305 307 302 301 301 299 301 300 300 302 299 299 297 296 298 296 295 293 294 293 287 286 287 286 287 287 287 286 286 287 287 287 286
304 304 304 304 304 303 303 304 303 304 305 307 308 307 306 306 305 304 304 304 304 304 305 306 307 307 305 305 305 305 304 304 303 304 305 304 304 304 304 304 304 304 304 303 303 302 303 302 301 304 304 304 305 306 306 305 306 303 305 306 302 307 305 299 302 299 299 299 296 296 299 300 295 291 288 286 286 286 286 287 286 286 286 285 286 286 286 285
304 304 304 304 304 304 304 304 303 304 306 308 308 307 306 306 306 305 305 304 304 305 305 306 306 307 308 307 304 304 304 304 303 304 305 304 304 304 304 304 304 304 304 303 303 303 303 302 303 305 305 308 305 302 306 307 307 304 307 310 307 314 309 299 300 300 298 298 297 298 303 306 295 288 287 286 287 286 286 286 285 285 285 285 285 285 285 285
304 304 304 305 304 304 304 303 303 304 307 308 308 307 307 307 309 308 308 307 306 307 306 306 306 305 308 307 304 304 304 303 303 304 305 304 304 304 304 304 304 303 304 304 303 303 304 303 304 305 305 308 303 301 310 314 310 306 305 311 311 311 306 299 298 300 298 297 297 299 305 307 295 289 288 286 287 287 286 286 285 285 285 285 285 284 284 284
303 304 304 304 304 304 304 304 303 305 307 308 307 308 308 309 309 308 309 308 308 308 307 307 305 306 309 306 303 304 304 303 303 302 303 304 304 305 304 304 303 303 304 304 304 303 303 304 305 307 306 305 306 310 317 317 314 310 306 313 314 309 305 301 297 297 299 298 297 300 305 305 295 291 289 287 287 286 286 286 285 285 284 284 284 284 284 283
303 303 304 304 304 304 304 304 303 305 307 307 308 308 308 308 307 307 307 307 308 307 308 308 305 308 311 305 303 305 303 303 303 301 303 304 303 304 304 304 303 303 304 303 304 304 303 304 304 304 307 307 308 314 316 316 318 312 308 311 311 308 307 304 299 296 297 298 298 300 306 306 297 292 289 286 286 286 286 285 284 285 284 284 284 283 283 283
302 303 303 303 304 304 304 303 304 306 307 306 307 307 306 307 307 307 307 307 307 306 306 306 304 307 309 305 304 305 303 302 302 302 303 303 303 304 304 304 303 302 304 304 304 305 303 305 304 302 306 304 302 309 312 313 316 313 312 311 306 306 306 306 305 298 295 300 302 300 305 305 295 291 289 286 286 286 286 286 285 285 284 284 284 283 283 283
302 302 303 303 303 303 303 303 304 306 307 306 306 306 306 306 306 306 307 307 307 307 307 307 306 308 307 305 304 303 302 302 302 301 302 303 303 304 304 303 302 302 308 308 304 306 305 306 306 305 306 302 301 309 311 309 310 309 310 310 307 307 307 306 306 300 297 303 305 302 305 303 292 289 289 286 286 286 286 285 284 284 284 284 283 283 283 283
302 303 303 302 303 303 303 303 303 305 307 306 306 307 306 306 308 307 305 306 309 309 309 307 307 308 306 304 302 302 302 302 301 300 301 303 303 303 302 301 302 305 315 314 305 306 307 308 310 309 308 305 302 304 307 307 307 307 307 308 307 308 309 306 303 298 296 302 305 303 303 301 294 289 288 287 285 286 286 285 284 284 284 283 283 283 282 283
302 303 303 303 303 303 303 303 303 304 306 307 307 307 308 313 316 312 306 306 306 304 307 308 305 305 304 303 302 302 302 302 301 299 300 301 302 303 301 302 307 307 311 312 306 305 306 307 309 306 306 305 302 300 301 302 303 306 308 309 308 307 307 305 301 298 295 301 303 297 297 300 295 290 288 287 286 286 286 285 285 284 284 284 283 283 283 283
302 303 303 303 303 303 303 303 304 304 305 306 307 307 309 313 312 308 307 306 302 300 303 304 302 302 303 302 302 301 301 302 300 299 300 301 302 304 302 305 312 308 304 305 305 304 303 305 304 300 301 302 300 299 299 300 304 306 308 310 309 305 304 302 300 298 294 300 301 292 296 302 296 290 289 287 286 286 286 286 286 285 284 284 283 283 283 283
302 302 302 303 303 304 303 304 304 304 305 306 307 307 306 308 306 305 308 308 304 301 302 302 301 303 302 301 301 300 300 302 302 300 299 302 304 305 304 304 307 304 302 306 308 305 303 303 301 298 299 300 300 299 300 303 306 307 307 309 307 303 303 302 300 298 295 299 302 295 298 303 295 291 291 288 287 287 286 286 286 286 285 284 284 284 284 283
302 302 302 303 304 303 304 305 304 303 307 308 307 307 306 306 306 305 308 310 306 302 304 305 304 305 304 302 301 302 302 301 302 300 298 303 306 306 307 304 302 301 301 306 310 307 304 302 299 298 299 301 300 299 302 306 306 304 305 305 304 302 303 303 301 299 296 297 300 297 298 299 295 293 293 290 288 287 287 286 285 285 285 285 284 284 284 283
302 301 302 303 303 304 305 305 304 304 306 308 307 307 307 307 306 306 307 309 308 304 303 303 302 304 304 302 300 302 304 301 301 300 297 302 305 305 307 304 304 303 299 302 304 304 302 298 298 299 300 300 300 300 302 306 305 304 304 303 304 303 301 302 301 299 297 296 296 297 300 301 297 296 295 291 289 288 288 288 287 286 285 285 285 284 284 284
301 302 304 304 303 305 305 305 304 303 304 307 307 306 307 306 306 308 308 309 308 305 303 301 301 303 301 301 301 300 302 301 299 299 297 298 302 304 304 301 305 306 301 301 302 302 301 297 297 301 302 300 300 301 301 301 305 306 302 300 301 301 300 301 300 300 302 302 297 296 305 307 300 298 297 293 291 290 289 289 288 287 286 285 285 284 284 284
302 304 304 304 303 305 306 307 305 302 304 306 306 307 307 308 308 306 311 319 313 304 304 304 302 303 302 300 300 299 303 304 298 297 298 297 298 302 304 302 303 304 303 303 303 302 301 299 298 300 303 304 303 302 299 299 306 304 299 298 299 299 300 301 300 302 306 303 297 296 302 305 302 303 299 293 292 292 290 290 290 289 288 286 285 285 285 284
304 305 305 304 304 305 307 309 306 304 305 305 305 307 306 308 308 305 313 324 313 302 304 307 303 302 303 299 298 301 304 303 299 297 298 297 297 300 306 306 303 302 301 302 304 302 302 303 302 300 304 306 304 302 299 298 303 301 297 298 299 298 300 302 302 304 304 300 297 297 299 302 305 304 297 292 295 295 292 292 291 290 289 288 287 286 286 285
305 306 305 304 304 305 306 307 307 305 305 305 305 307 307 307 308 311 318 316 306 302 304 306 303 302 303 299 299 304 303 300 301 299 297 297 297 300 306 304 302 302 298 303 307 301 300 304 302 301 304 305 302 300 299 298 300 299 297 297 298 298 300 301 304 305 301 299 302 300 297 300 306 304 295 292 298 301 299 297 294 292 291 290 288 287 286 286
305 306 306 305 303 305 305 304 305 304 303 304 304 306 307 306 307 315 319 308 302 303 303 303 303 302 304 303 303 304 302 300 301 299 297 297 297 299 302 301 302 303 298 303 309 302 300 302 300 300 301 301 301 300 300 300 299 297 295 296 296 296 298 299 302 305 303 303 305 300 297 300 304 304 300 297 301 306 308 305 298 294 292 291 290 288 287 286
305 306 306 306 304 304 304 303 303 303 303 303 304 306 306 309 318 320 311 303 302 303 303 304 304 302 305 309 308 304 302 302 300 299 300 299 298 299 298 297 302 305 301 303 305 301 299 299 299 300 300 300 299 300 300 299 298 296 295 298 298 296 298 300 301 303 304 306 304 298 298 301 301 303 303 301 305 310 310 308 302 298 295 292 291 290 288 287
306 306 306 307 305 304 305 304 303 303 304 303 304 306 304 311 325 323 304 299 302 304 304 305 304 304 305 307 305 302 304 304 301 302 304 300 300 301 299 298 302 308 308 306 303 300 299 299 299 299 300 298 297 298 298 297 297 296 297 299 299 298 297 300 303 303 303 305 301 296 297 299 299 302 303 302 304 305 305 306 306 305 303 295 290 290 289 287
306 306 307 307 305 305 305 303 304 304 303 304 305 308 311 313 314 311 304 302 302 304 304 304 304 305 305 304 303 301 304 304 301 301 302 301 300 299 299 299 299 303 306 303 302 302 301 300 298 297 298 296 298 300 300 300 299 298 299 301 304 305 301 302 306 303 302 301 296 295 296 296 297 298 299 299 302 302 301 301 303 305 305 299 292 290 289 288
305 306 306 306 304 304 304 303 304 304 303 306 307 313 323 321 306 302 305 306 302 301 301 302 303 302 303 305 303 301 301 300 301 300 298 300 302 298 297 297 295 299 301 298 301 304 303 301 298 297 298 296 298 301 300 301 300 299 300 300 304 308 304 305 305 297 296 297 292 292 294 296 297 297 297 297 298 300 298 295 296 298 300 298 293 290 290 288
304 305 306 305 303 302 303 304 304 304 305 307 312 315 315 310 303 300 305 305 301 301 301 302 303 300 301 303 301 300 301 299 300 301 300 302 304 303 301 299 296 299 302 300 299 300 300 299 297 297 298 297 299 299 298 299 299 298 297 297 301 304 301 302 304 299 297 297 293 291 294 300 303 300 299 298 297 297 296 293 292 292 293 292 291 291 291 290
304 304 304 305 304 303 303 304 304 306 305 307 320 322 310 303 303 303 305 304 302 304 301 299 302 301 302 303 299 298 299 299 299 301 303 303 302 302 300 299 298 297 301 301 297 296 299 298 297 296 295 297 299 297 296 298 298 295 294 295 298 300 300 298 296 296 295 296 298 295 297 300 300 297 295 294 296 295 294 294 293 293 292 290 292 292 292 291
306 303 303 304 305 305 304 304 305 305 305 313 324 320 310 304 302 303 306 301 301 304 302 301 303 302 304 304 303 301 297 297 299 300 301 301 299 299 299 298 297 295 298 299 297 298 300 298 297 297 296 296 296 295 296 297 297 294 294 296 293 292 299 299 292 290 290 294 298 297 298 298 295 298 297 293 296 296 293 294 294 294 292 291 293 293 292 292
307 304 302 302 304 306 305 305 306 304 308 322 325 311 304 302 298 301 305 302 299 300 304 307 302 300 304 304 304 306 301 296 298 300 300 299 298 299 300 298 295 295 297 297 297 297 299 301 298 297 298 296 292 295 297 294 295 296 295 294 291 290 295 296 295 295 293 294 295 294 297 297 294 299 302 297 298 300 298 296 294 293 292 292 293 292 291 292
306 305 303 301 303 305 306 307 305 305 314 324 320 307 302 301 299 300 303 301 300 301 306 309 302 298 302 303 302 304 302 299 301 302 300 299 299 299 300 299 296 296 295 295 298 296 295 302 300 295 297 297 293 295 298 295 292 294 295 292 292 295 295 292 294 296 293 293 296 295 295 295 293 299 304 301 301 303 301 298 296 297 296 294 294 292 291 291
306 308 306 302 301 302 305 305 302 307 319 321 315 307 302 301 301 301 300 299 300 302 304 305 301 298 301 301 301 301 300 300 301 301 298 298 299 297 297 298 296 297 295 294 299 297 293 300 302 296 294 295 296 297 299 298 294 293 295 293 293 296 296 294 293 293 294 295 297 297 298 298 296 299 302 301 302 303 302 301 301 303 302 299 297 295 294 292
304 309 307 300 302 303 301 301 305 315 321 312 307 305 301 301 302 299 296 297 300 300 301 304 301 300 301 299 299 300 300 302 300 300 299 298 299 298 296 297 297 296 295 293 297 298 295 296 301 300 295 294 297 299 300 302 299 297 298 296 295 294 292 292 291 290 294 298 296 296 299 298 295 295 298 298 298 300 301 301 303 304 303 302 299 297 297 296
304 311 307 299 302 303 303 306 308 310 311 305 303 304 302 302 302 299 294 295 300 299 298 304 302 301 302 300 298 300 302 305 301 300 301 298 298 298 296 298 299 296 296 295 296 298 297 296 300 303 300 299 299 296 295 299 300 302 302 300 300 298 294 296 295 290 291 294 295 295 296 295 294 296 298 295 293 295 296 296 300 302 302 303 301 298 297 297
309 312 304 300 302 302 306 311 303 301 308 306 303 303 303 303 302 300 296 295 300 300 298 301 302 301 302 301 300 301 302 304 303 301 301 298 298 298 296 296 298 296 296 297 295 295 296 296 299 301 299 298 295 291 291 294 296 298 298 296 297 298 298 300 300 295 291 290 291 292 294 296 295 295 296 294 292 293 293 292 295 298 298 298 297 295 293 292
316 310 300 300 301 302 308 311 304 303 307 302 299 300 301 303 302 300 299 299 300 300 300 301 300 300 301 299 301 302 301 302 303 301 301 300 299 298 296 295 297 296 296 296 295 294 296 298 298 300 299 295 291 289 290 291 292 295 296 292 293 296 298 299 298 296 294 293 292 292 295 297 294 293 294 294 292 292 292 291 292 294 294 292 292 292 290 290
312 304 301 301 299 302 311 314 310 307 303 299 300 300 298 300 301 300 300 302 301 300 302 303 300 298 299 299 301 302 299 299 301 299 298 301 300 296 294 293 294 296 296 297 296 295 296 299 298 299 301 299 298 298 296 294 293 296 297 293 293 294 294 294 292 291 294 295 294 295 297 295 294 294 294 295 296 296 296 293 291 292 293 291 290 289 289 289
305 301 304 304 298 300 306 308 309 310 305 303 302 300 300 300 300 300 301 301 300 300 301 301 299 299 299 298 301 300 297 297 299 298 296 299 299 296 293 292 292 296 297 295 295 294 296 298 297 298 300 299 300 302 301 299 297 296 296 294 293 293 294 295 294 293 295 294 291 295 298 295 293 295 295 295 296 295 295 294 291 291 291 290 289 289 288 288
306 306 309 307 300 300 302 300 304 308 306 307 304 300 302 303 300 299 300 300 299 299 300 299 297 299 299 299 302 302 299 297 297 298 298 300 301 297 292 291 291 293 295 294 294 296 297 296 296 299 300 298 298 298 297 297 296 295 296 296 294 292 291 294 297 296 295 293 291 294 295 294 294 294 293 294 294 293 293 293 292 290 290 289 288 288 288 288
308 310 307 304 303 305 305 303 306 308 304 307 304 299 302 304 301 299 298 298 298 299 300 299 297 299 299 300 304 304 301 298 296 298 299 300 302 297 291 291 291 291 292 293 293 295 297 297 296 297 298 296 296 296 294 294 294 294 294 295 295 293 290 292 296 295 294 294 294 294 293 294 294 293 294 294 294 293 293 292 292 291 290 289 289 288 288 288
303 305 300 299 303 307 305 304 308 308 304 305 304 300 303 305 303 304 302 298 298 298 300 300 299 300 302 302 302 302 300 298 298 300 299 299 300 298 293 292 293 292 293 292 292 294 297 298 296 295 296 296 294 294 294 293 293 293 293 293 293 293 292 293 294 293 293 294 295 295 295 295 294 294 294 294 294 294 293 293 292 291 291 290 289 289 289 289
300 303 298 296 302 306 303 301 304 308 308 308 307 303 305 308 306 305 301 299 301 298 298 302 302 301 303 301 298 301 302 298 298 300 301 300 299 299 298 296 294 291 292 294 293 293 296 299 295 293 295 295 294 293 292 292 293 293 292 292 292 292 292 292 292 292 292 292 293 293 294 294 293 294 294 293 294 293 292 292 291 291 291 291 290 290 289 289
305 307 304 302 304 303 302 301 303 309 306 303 305 303 303 309 308 303 300 303 307 301 296 300 301 301 303 301 299 302 303 300 297 297 299 300 298 298 301 301 297 292 292 295 294 290 292 298 296 293 295 295 294 293 292 292 293 293 292 291 291 291 291 290 290 291 291 291 292 292 292 292 292 292 292 292 292 292 291 292 291 291 291 290 290 290 289 289
302 301 301 309 309 302 303 303 302 308 305 301 304 303 303 308 307 303 302 301 302 301 298 300 302 302 301 299 300 303 301 299 298 296 298 300 298 299 300 298 298 298 295 294 294 291 291 295 295 294 297 297 293 292 294 294 293 293 294 294 293 292 292 292 291 290 291 292 292 291 292 292 292 292 292 292 292 292 292 291 290 290 290 290 290 290 289 289
298 296 298 309 309 300 303 304 299 302 304 304 305 303 303 307 303 301 302 300 299 300 298 299 303 303 302 303 304 304 301 298 297 295 295 296 296 297 296 294 297 302 298 294 293 290 290 295 297 294 298 300 293 291 295 295 295 298 300 301 299 295 293 293 292 291 290 291 293 293 294 294 293 293 293 292 292 292 291 291 291 291 290 290 290 290 290 289
Wind_Speed
4 4 4 4 5 5 5 6 6 6 6 6 7 7 7 6 6 5 5 4 4 3 2 3 3 3 1 1 3 5 10 13 16 18 14 8 11 13 15 16 14 13 11 10 9 4 2 2 2 2 5 3 3 0 1 2 2 3 3 2 3 3 3 5 6 6 3 2 2 2 4 6 5 2 1 4 9 9 10 9 8 10 10 13 20 28 31 30
5 5 5 5 5 6 6 6 6 7 7 7 8 7 8 7 6 5 4 4 3 2 2 3 4 3 1 0 2 8 9 7 15 18 13 10 13 15 16 16 14 11 9 10 9 6 2 1 3 3 3 2 2 1 1 2 2 3 3 2 4 5 4 5 5 4 2 3 4 3 4 5 3 3 1 4 4 6 12 8 7 12 12 15 20 25 25 24
5 5 6 6 7 7 7 7 7 7 7 8 8 8 8 7 7 6 4 4 3 2 2 3 3 2 1 1 2 7 9 2 10 10 11 12 13 16 18 16 13 9 8 9 8 5 2 1 1 3 3 2 1 1 2 1 1 2 3 1 5 4 3 2 1 3 2 5 7 5 3 6 4 3 1 6 6 7 7 4 5 9 9 10 12 15 17 18
5 5 6 7 7 8 8 7 6 7 8 8 8 7 6 5 5 4 4 4 3 2 3 3 3 2 0 1 1 5 8 4 5 5 11 12 12 17 20 17 12 8 7 8 6 3 2 2 3 4 3 2 3 2 2 1 1 2 3 3 4 2 2 2 4 3 1 5 8 5 5 7 3 4 4 3 6 6 2 2 3 2 5 8 6 10 15 18
5 6 6 7 8 9 9 7 6 8 9 8 6 6 6 5 5 4 2 3 4 3 3 2 2 0 1 0 1 6 6 4 3 7 13 14 14 17 21 19 11 6 6 7 4 2 3 3 5 5 3 1 2 2 0 2 1 2 1 2 1 1 1 4 4 3 2 6 8 6 6 5 1 5 7 3 5 1 1 4 6 3 4 7 6 9 14 15
5 7 7 8 9 10 9 6 7 9 10 7 6 7 7 7 6 6 3 1 5 4 3 2 1 1 2 3 4 6 5 2 5 10 15 16 15 18 21 18 8 4 6 5 2 1 2 4 5 3 2 2 1 2 0 3 2 1 1 3 4 2 1 4 5 4 3 7 7 4 4 4 5 6 6 7 6 1 3 5 5 4 8 9 9 10 12 12
6 8 8 8 10 10 10 7 7 9 9 7 6 7 8 8 7 6 4 0 5 5 3 3 2 3 6 10 10 7 6 2 8 14 17 16 15 19 19 12 5 5 5 3 2 1 3 5 3 3 4 2 2 2 1 3 4 3 1 2 3 5 5 4 4 5 8 10 5 4 6 4 5 5 3 7 5 4 5 4 3 9 12 12 11 10 11 11
7 8 8 8 9 10 10 9 8 9 9 7 7 8 9 9 7 5 4 1 4 5 4 3 2 4 7 7 7 7 4 3 12 17 18 17 16 18 13 5 3 3 1 4 2 3 3 3 3 3 3 1 3 2 1 1 4 4 2 1 3 5 5 4 7 9 11 10 6 9 10 5 4 5 4 5 4 5 5 4 6 10 12 11 10 10 11 11
7 7 7 8 8 10 11 11 10 10 10 9 9 9 9 9 6 4 4 3 4 5 5 4 3 3 5 3 5 5 4 7 14 19 19 18 15 12 6 3 4 2 4 7 4 3 2 1 3 3 4 2 3 2 1 1 0 1 3 3 4 4 3 5 8 8 8 4 4 10 7 3 3 3 5 3 4 4 4 4 5 8 10 8 8 8 9 10
5 6 6 7 8 10 11 11 12 11 10 9 9 9 9 8 6 5 5 5 6 6 5 4 5 5 5 4 7 5 5 8 15 20 18 14 8 4 3 5 6 4 5 8 8 6 2 4 4 4 5 2 3 1 2 2 2 4 6 6 7 6 3 5 5 4 4 3 4 8 4 2 2 1 4 2 3 3 3 5 5 6 8 6 6 7 7 8
4 5 6 7 9 9 11 11 11 10 9 9 9 9 9 8 7 6 6 7 7 7 9 13 14 15 17 12 7 4 6 9 16 20 14 8 5 5 5 6 7 6 5 6 8 6 4 4 6 5 2 1 2 2 2 2 4 6 8 8 6 5 7 7 4 2 3 3 3 8 6 2 5 3 2 2 3 2 3 4 5 6 6 5 6 5 6 7
4 5 7 8 8 9 10 11 10 10 9 10 10 9 9 8 8 8 8 8 7 9 14 15 11 10 18 15 6 2 7 11 17 19 13 8 8 9 8 7 8 8 5 6 6 6 5 4 6 6 0 2 3 1 2 3 4 4 4 6 2 4 7 9 5 3 3 2 0 4 3 2 5 3 1 3 1 3 4 4 4 5 5 4 4 4 4 5
4 6 7 8 9 9 10 10 10 9 9 10 9 8 9 9 9 9 8 8 7 9 11 7 5 2 8 7 2 4 8 12 17 17 15 10 7 9 10 8 7 8 7 8 6 5 6 3 7 7 2 5 2 0 3 4 4 2 2 5 1 4 5 8 5 4 4 2 3 0 1 2 2 2 2 2 0 3 4 4 2 3 3 3 3 3 3 3
6 6 7 8 9 9 10 10 9 8 8 8 7 8 8 9 10 9 9 9 8 9 7 5 7 7 7 2 2 8 12 14 20 20 18 13 7 7 9 8 8 8 8 9 9 8 7 6 11 8 3 4 2 1 4 5 4 1 2 3 2 1 2 5 5 5 3 1 5 1 2 3 2 2 3 3 1 1 3 4 2 2 2 3 3 3 3 3
7 7 8 8 9 9 9 9 8 6 6 7 7 9 9 9 10 10 10 9 9 8 7 6 7 7 7 2 1 8 15 17 24 24 18 14 11 6 6 8 9 9 10 11 11 11 10 10 11 5 2 3 4 4 4 4 4 3 1 1 2 2 1 3 4 5 3 1 6 3 2 2 3 4 4 3 1 2 3 4 4 3 3 3 3 3 3 3
7 7 7 7 8 8 8 7 5 4 7 8 9 9 9 9 10 12 12 11 11 8 6 5 4 6 6 1 4 8 12 15 21 24 16 11 13 10 5 6 8 10 11 11 10 8 12 12 7 2 2 5 5 4 3 4 4 3 2 0 2 2 1 2 1 5 3 2 5 4 2 1 2 4 4 2 3 4 4 5 5 4 4 4 3 3 3 3
8 7 7 7 7 7 6 6 3 6 11 14 15 13 12 9 5 4 4 8 11 9 10 9 5 6 5 4 5 5 9 12 17 23 19 10 10 12 7 5 5 6 6 11 12 8 10 9 2 1 4 5 3 2 3 2 3 3 3 2 2 1 1 2 1 4 7 1 1 4 1 2 3 2 3 2 4 4 4 6 5 5 4 3 3 3 3 4
8 8 8 7 7 6 6 5 2 7 11 16 19 19 20 19 14 10 5 4 4 5 9 11 8 6 3 7 5 8 13 12 15 22 22 12 7 12 13 7 3 3 3 7 11 8 6 5 3 3 4 5 5 5 3 2 1 1 1 1 2 2 1 2 2 4 8 4 2 4 1 3 3 2 3 3 4 5 5 5 4 4 4 3 4 3 4 4
8 9 9 8 7 6 5 4 2 7 11 13 13 12 11 13 17 21 21 14 6 4 3 5 6 4 1 5 7 13 11 7 13 21 24 18 7 6 12 11 5 4 4 4 6 6 3 4 5 4 4 5 4 2 2 3 3 3 2 2 1 2 2 3 2 2 3 4 3 2 2 3 3 4 4 3 3 4 4 4 4 4 4 4 4 4 5 5
7 9 10 10 8 6 5 4 2 6 11 11 8 2 2 3 6 10 16 16 6 3 3 1 1 3 1 3 10 16 7 1 9 21 30 23 8 4 9 9 7 7 5 1 3 4 3 6 5 1 3 5 5 4 3 1 2 4 3 3 2 1 3 3 1 3 1 2 1 1 2 5 5 6 5 3 2 4 4 5 6 6 5 6 6 6 6 6
6 7 10 12 9 7 5 3 3 4 10 12 9 1 1 2 2 1 2 7 2 3 5 1 1 2 1 2 10 13 4 1 8 22 34 23 5 4 7 7 7 7 4 1 2 4 5 6 3 4 5 6 4 2 3 2 3 3 4 3 1 0 3 2 1 3 2 0 1 0 2 7 6 5 4 3 4 6 6 7 7 8 7 6 6 7 7 5
6 7 9 12 10 7 4 3 4 2 6 9 8 3 2 4 7 8 5 4 2 5 5 2 3 3 2 2 11 11 3 6 10 18 30 22 9 5 4 6 8 3 4 3 2 4 6 4 4 6 4 3 2 3 3 4 5 4 3 3 2 2 3 3 1 3 3 1 2 0 2 6 5 4 4 5 6 6 6 8 7 7 8 7 7 8 7 6
7 8 9 12 11 7 3 4 3 2 4 7 7 6 6 10 12 9 6 6 1 4 4 4 5 5 4 4 13 12 6 7 5 12 25 18 7 4 3 6 7 3 6 6 4 4 3 2 5 2 2 2 4 6 5 5 4 3 3 3 1 3 2 2 2 3 3 1 0 2 2 5 2 2 5 6 6 4 4 7 7 6 8 8 8 7 7 8
8 8 10 11 10 5 3 4 4 4 6 7 9 10 11 13 12 7 5 5 2 1 1 1 2 3 3 4 13 9 5 4 0 8 20 12 3 3 4 4 5 5 5 6 8 8 3 3 2 3 3 3 1 5 6 5 3 2 2 3 1 3 1 3 3 3 2 2 2 0 2 4 1 2 5 4 4 5 5 6 7 7 7 7 7 7 8 9
9 9 11 11 8 3 2 3 4 6 7 7 10 12 13 11 8 5 4 4 2 2 2 1 1 4 2 6 13 4 4 3 2 5 13 9 3 2 3 2 4 3 1 4 9 8 2 2 1 4 5 3 3 4 5 2 2 3 1 3 2 3 4 4 3 3 3 2 1 2 3 3 1 3 6 2 2 6 5 6 9 8 7 7 8 8 9 9
9 11 12 10 6 2 2 2 4 6 6 5 9 12 11 9 6 3 4 4 3 3 4 2 1 6 5 8 12 2 4 3 1 7 11 9 4 2 4 2 2 3 4 2 5 3 2 3 3 4 4 5 5 4 2 2 4 2 1 2 1 2 3 3 2 1 1 2 2 2 2 3 4 3 4 2 4 7 5 8 11 9 8 8 9 9 8 9
10 12 13 9 6 3 1 2 4 4 3 4 9 11 10 7 4 2 3 5 4 2 3 3 2 6 5 7 9 2 2 6 3 7 12 10 6 2 5 3 2 2 1 2 3 1 1 5 6 5 5 6 5 2 2 3 5 1 1 0 2 1 2 2 2 2 0 1 2 3 2 1 5 4 2 1 5 7 7 10 12 10 11 10 10 10 10 10
11 12 12 9 6 4 3 5 4 3 4 8 10 10 9 6 2 1 5 4 3 1 1 3 3 5 5 7 10 6 1 6 2 5 11 11 8 3 5 3 3 1 1 4 3 1 1 4 5 5 5 4 1 2 2 3 2 3 2 0 1 2 3 3 4 3 1 2 3 3 2 0 5 4 1 1 3 7 8 11 13 13 14 13 12 12 12 11
10 11 11 8 4 5 6 7 6 5 8 11 10 9 8 3 1 4 6 2 2 2 0 2 3 5 6 7 8 5 2 4 2 5 11 10 9 6 5 2 5 4 2 4 5 3 0 1 1 3 4 1 3 4 3 3 2 2 3 2 3 4 3 3 4 3 3 3 2 4 1 1 5 5 1 1 2 6 8 9 10 11 12 13 13 13 12 10
11 10 9 6 2 3 5 7 8 9 9 10 10 10 6 2 4 6 3 1 1 2 1 3 3 4 7 6 6 6 5 4 3 6 6 4 8 8 4 1 4 6 4 6 4 1 2 1 1 3 2 2 3 3 3 4 3 0 4 2 2 3 4 3 2 3 4 2 4 4 0 2 3 6 3 3 4 6 6 5 6 6 8 10 11 11 11 9
12 11 8 5 2 2 3 6 8 9 8 9 10 8 5 3 5 6 1 2 1 2 2 4 3 4 7 5 4 6 5 5 6 6 6 4 7 8 5 3 3 5 5 5 5 4 4 3 1 1 1 0 2 2 1 1 1 2 3 2 1 2 3 3 4 4 3 3 5 3 2 2 2 6 5 5 7 6 6 5 7 7 7 8 9 9 9 9
14 12 9 7 4 4 5 7 8 8 7 9 8 5 5 2 2 2 2 3 2 2 2 1 3 4 5 3 4 5 4 4 5 5 3 3 5 5 4 2 1 3 4 2 3 4 2 1 2 3 1 1 3 2 2 4 4 4 4 4 3 2 4 3 3 3 1 4 3 2 3 1 6 9 9 9 10 10 9 8 8 7 7 6 6 6 6 6
16 13 10 10 8 8 10 9 8 8 8 8 5 5 7 4 0 2 2 2 1 2 0 0 3 2 2 4 4 4 2 2 4 4 2 2 4 3 2 1 2 2 1 1 2 3 3 3 4 3 2 2 4 2 1 3 4 4 2 4 3 2 4 2 3 3 3 4 3 2 2 3 5 7 9 13 11 8 8 8 7 6 6 4 3 3 4 5
19 17 14 13 11 10 10 8 8 9 8 5 4 4 5 2 2 2 2 2 1 2 1 0 2 2 3 4 2 3 2 1 3 4 3 3 4 3 3 4 4 3 2 2 1 1 1 3 2 2 1 2 3 2 2 2 2 3 2 4 2 4 3 2 4 2 4 5 4 3 1 3 3 4 6 8 6 3 3 4 4 5 5 3 3 3 3 5
15 18 18 16 13 10 8 6 8 8 5 4 6 5 3 2 3 2 2 3 1 2 1 1 3 3 3 3 3 1 1 1 3 4 4 3 2 1 2 3 3 3 3 2 1 1 2 3 4 3 2 2 2 1 2 4 2 1 1 4 2 3 3 1 3 4 1 3 4 2 3 5 4 7 7 4 5 5 4 3 3 5 5 2 4 5 5 5
9 14 18 18 13 9 6 6 6 4 3 5 7 4 2 3 2 3 2 1 0 1 0 1 3 4 3 4 4 3 1 2 2 3 3 2 1 2 1 2 1 1 3 3 1 1 1 3 4 2 2 2 1 1 1 3 1 1 2 1 1 2 5 3 1 0 4 1 4 2 4 6 4 7 6 3 4 7 5 5 5 6 4 3 6 7 7 7
5 8 12 17 14 8 5 5 4 2 4 7 6 2 3 3 2 3 3 1 0 2 4 1 1 2 1 2 3 4 3 2 2 2 1 1 1 2 1 2 1 1 2 3 2 2 2 3 4 1 1 1 0 1 3 3 2 1 0 2 2 2 4 3 0 3 4 1 4 2 4 6 3 4 6 5 5 7 6 6 6 6 5 6 8 9 9 9
2 3 7 16 15 8 5 4 3 3 6 7 5 2 2 1 1 2 3 1 1 3 5 2 1 0 1 1 2 4 4 2 2 3 1 1 0 3 2 1 1 0 2 2 2 1 3 1 6 1 2 2 2 2 2 3 2 2 2 2 2 1 0 1 1 1 2 3 5 4 5 5 4 5 5 4 5 7 6 5 5 7 8 8 9 9 10 9
0 2 4 13 13 7 5 3 3 6 7 5 2 2 1 1 1 1 2 1 1 3 3 2 1 1 2 2 1 3 2 1 1 2 1 0 1 2 3 1 1 0 1 2 3 1 2 2 4 3 1 2 3 1 2 1 2 2 3 2 2 3 3 1 1 2 2 2 4 5 5 4 6 6 4 7 8 7 6 5 6 8 8 8 8 7 8 7
1 2 2 11 10 6 6 6 6 8 6 3 3 2 1 1 1 0 1 1 1 2 1 3 2 2 2 2 1 1 1 1 1 1 1 1 1 2 1 1 2 2 1 2 3 1 2 2 3 5 3 1 1 2 5 5 3 1 1 1 1 1 2 0 1 2 3 2 2 2 5 8 6 4 6 10 9 7 7 6 6 7 7 7 7 7 7 7
3 2 2 12 9 1 5 9 7 5 4 3 2 2 1 2 2 1 1 2 1 1 2 4 4 2 3 1 1 2 0 1 0 0 2 2 1 1 1 2 4 3 2 2 1 1 1 2 3 3 4 2 4 3 4 5 5 4 4 4 3 3 3 1 2 2 2 3 4 2 4 11 6 4 6 9 6 5 6 5 5 6 7 7 7 7 7 7
4 2 4 12 6 2 6 7 3 2 4 2 1 2 1 2 2 1 2 2 1 1 2 3 3 2 3 2 2 3 2 0 1 1 2 3 3 3 1 3 5 4 3 2 2 2 2 3 0 4 4 4 4 3 1 2 3 4 2 3 3 4 5 5 3 3 1 1 1 4 2 11 5 4 4 5 4 5 4 4 6 7 7 7 7 7 7 7
3 4 4 10 2 6 9 6 2 4 3 1 0 1 1 1 2 1 1 1 1 1 2 1 1 1 2 2 2 3 2 2 3 2 2 3 3 3 2 4 5 4 3 2 1 1 1 3 1 4 5 3 4 4 3 2 3 3 1 2 4 3 3 5 5 4 2 3 2 3 4 10 5 2 3 4 4 5 4 5 7 7 7 7 8 8 7 8
2 3 3 9 1 3 4 4 2 2 1 1 2 1 1 1 2 1 2 1 1 2 2 1 1 0 1 2 2 3 3 1 2 2 2 2 3 1 3 4 4 3 2 2 2 2 1 0 1 3 6 6 6 5 5 4 1 2 3 1 2 4 6 4 2 3 1 6 7 4 7 10 4 1 2 2 2 5 6 6 6 7 8 7 7 8 8 8
3 1 2 8 8 5 3 4 6 5 3 3 4 1 0 1 1 1 2 2 1 2 2 1 1 2 2 2 2 1 2 1 1 1 0 1 4 1 2 4 3 2 2 2 2 2 2 2 3 2 1 4 4 4 4 2 2 2 1 3 3 5 8 4 2 3 4 5 7 6 10 11 7 6 7 6 6 9 10 8 6 7 9 8 8 8 9 9
2 2 1 5 8 7 3 0 4 6 5 4 4 1 1 2 1 1 1 2 1 2 2 1 1 3 3 2 1 1 2 1 1 0 1 3 4 2 1 2 1 1 2 2 2 3 3 1 3 6 6 7 7 8 4 2 1 5 5 5 5 5 6 4 4 4 5 3 4 12 15 14 18 19 17 13 10 11 12 10 8 8 8 8 9 10 10 9
1 2 1 1 3 4 4 4 4 4 3 4 3 2 3 2 1 1 1 1 1 2 1 1 2 2 2 3 2 2 2 0 1 1 3 4 4 3 0 3 1 2 4 3 1 3 4 3 5 8 10 11 10 9 4 0 5 10 10 7 8 7 7 7 8 9 5 5 9 17 11 10 20 22 17 15 13 11 11 11 10 8 8 9 10 11 11 10
1 2 2 1 1 2 3 2 3 5 4 3 2 2 3 3 2 2 1 0 1 1 1 0 2 4 6 5 3 2 2 1 2 3 2 2 2 3 1 1 1 3 4 1 2 3 5 4 5 5 8 10 9 11 9 5 7 10 11 10 9 9 10 14 19 13 8 7 18 16 6 10 19 21 18 17 15 13 14 13 11 9 10 11 11 11 11 11
2 3 0 2 2 3 1 1 5 6 5 3 2 2 4 5 5 4 2 2 1 2 2 2 5 5 6 5 4 3 3 2 2 4 3 3 2 0 1 2 1 1 3 2 1 2 3 4 2 2 6 10 9 11 9 6 7 9 13 13 11 12 15 18 20 15 11 15 22 20 17 19 21 21 21 18 14 12 13 13 12 11 12 12 12 11 11 12
2 3 2 3 4 2 1 2 4 5 3 3 2 2 4 7 7 4 2 4 2 2 2 4 5 3 4 5 5 4 7 7 4 5 5 4 3 3 3 3 3 2 1 2 1 1 2 3 1 3 4 8 5 4 4 4 6 11 16 16 13 13 14 16 17 13 10 16 21 20 19 20 21 19 17 15 14 12 12 13 12 10 11 12 11 11 12 12
3 4 6 6 3 2 1 2 3 4 1 0 3 3 3 6 8 4 2 4 5 5 6 6 5 3 3 3 5 8 9 7 6 8 8 7 4 4 4 3 5 5 3 3 1 1 2 3 1 5 3 6 1 4 6 6 8 12 19 20 15 12 10 10 11 10 11 14 15 12 11 15 16 11 7 9 11 10 11 14 12 10 11 11 11 12 12 12
5 4 4 6 3 1 0 1 2 2 2 3 3 4 3 5 6 5 2 1 1 3 6 7 7 4 2 3 8 10 8 7 7 7 6 5 3 3 3 3 6 7 5 4 1 1 3 2 1 2 2 6 3 4 6 7 9 11 12 11 9 8 7 7 7 9 13 11 8 7 10 13 10 6 7 10 10 10 12 12 10 10 11 10 10 12 13 12
Wind_Direction
18 13 9 12 9 8 7 1 354 343 335 330 328 324 319 312 310 308 304 306 302 302 294 280 272 278 315 12 37 107 108 78 65 56 52 27 359 356 351 346 341 339 342 344 352 17 129 86 25 130 147 119 21 15 72 25 70 70 103 149 227 192 194 191 182 199 184 165 154 15 4 117 117 349 97 54 36 56 63 47 57 62 70 90 109 123 128 130
16 10 10 14 14 11 4 353 340 332 330 329 328 323 317 310 306 306 302 308 304 300 271 258 264 258 272 326 111 137 141 73 54 49 33 8 360 354 348 345 342 339 343 350 357 16 70 330 350 59 100 87 0 6 62 356 61 90 121 155 228 196 209 199 175 201 181 124 122 69 27 88 93 301 353 68 16 43 70 52 64 78 80 94 108 122 128 130
21 20 20 18 12 5 356 346 340 337 339 337 333 324 317 310 302 298 291 289 287 282 248 248 252 256 286 184 145 160 178 85 43 29 8 5 359 355 351 342 338 338 339 349 352 2 57 230 5 79 70 74 353 6 80 15 14 152 126 185 241 212 222 242 237 248 186 138 120 100 73 67 33 316 4 107 84 51 72 55 67 88 92 98 101 110 117 117
39 39 26 15 8 4 357 352 357 358 355 348 343 339 334 329 319 304 284 268 259 249 235 240 244 271 323 160 106 172 174 72 30 333 354 1 349 349 349 340 333 332 329 342 350 2 65 114 79 81 77 64 334 9 117 334 315 159 142 194 229 193 170 4 324 292 139 125 119 120 103 81 32 21 31 125 98 53 57 354 1 41 84 93 81 89 102 103
52 40 23 17 16 12 8 11 21 11 2 2 9 15 14 10 4 349 307 246 223 215 218 229 223 177 71 96 183 173 150 55 332 327 350 347 338 337 339 337 328 321 326 335 343 52 88 92 65 55 66 91 345 29 115 323 74 140 168 160 143 160 145 356 335 343 57 104 99 96 93 95 99 42 23 45 95 94 288 313 306 322 65 90 80 84 93 90
48 32 25 25 23 19 18 27 27 11 9 21 35 33 29 24 18 12 8 205 198 200 205 203 162 88 61 74 127 154 123 74 317 342 344 335 334 328 330 330 321 325 323 322 331 83 79 50 57 65 58 70 108 107 220 328 36 153 326 54 35 13 53 341 340 6 56 91 79 86 103 104 102 73 29 51 74 294 304 305 305 46 77 88 79 76 83 79
40 28 28 27 24 22 23 29 22 13 17 31 36 31 30 25 22 22 15 102 181 185 180 164 120 97 102 96 96 91 94 78 337 346 338 333 328 322 328 327 325 329 309 313 330 127 89 51 90 140 86 79 175 127 153 335 31 96 68 45 42 37 45 355 18 53 68 82 78 94 88 60 88 105 58 45 39 334 339 336 23 75 81 82 75 69 77 79
32 27 27 26 23 21 23 26 21 17 19 27 27 21 21 19 24 32 28 96 160 166 155 149 131 116 129 118 94 64 55 331 340 346 334 329 324 324 334 343 353 331 23 42 0 160 112 69 148 163 92 125 176 117 123 11 34 81 84 60 80 57 51 39 61 69 73 86 89 77 69 50 80 109 83 31 3 358 353 14 64 79 74 67 67 71 81 84
25 21 20 20 20 18 19 21 19 18 18 21 19 14 17 19 26 42 60 111 138 144 142 134 111 117 154 138 88 70 354 330 344 345 335 327 326 334 349 34 32 32 82 48 40 122 130 158 187 179 152 171 137 105 340 113 123 104 71 57 88 78 48 50 64 68 75 87 78 75 67 60 88 90 75 25 348 3 359 45 62 73 72 64 66 72 81 90
13 9 14 16 17 16 16 18 17 17 17 18 14 14 19 26 44 64 82 105 123 131 123 111 102 101 125 95 74 68 342 350 352 346 340 332 336 2 25 51 52 59 79 54 52 67 81 176 182 150 135 113 114 77 352 118 131 105 93 79 88 91 50 37 65 72 73 34 45 99 107 12 9 55 89 0 331 10 29 60 52 66 75 73 76 73 78 86
355 1 8 10 15 15 14 16 15 15 14 14 13 20 30 44 65 74 87 108 120 119 110 105 97 87 86 79 80 63 358 359 354 354 356 357 28 36 34 62 59 55 72 61 57 51 58 149 149 123 120 97 104 25 18 101 109 121 117 91 70 72 58 32 34 16 42 56 59 108 126 23 16 42 105 299 325 47 68 77 67 77 82 79 87 81 80 83
344 352 0 6 12 12 12 14 13 14 14 14 18 30 45 59 71 76 89 106 110 118 124 109 86 78 75 68 80 53 6 1 355 5 22 36 47 41 56 80 60 60 77 74 61 44 62 129 113 91 63 135 108 18 105 88 90 131 117 98 22 21 44 12 348 331 38 120 228 98 120 351 13 13 286 299 24 102 88 85 76 88 95 87 93 91 86 93
342 345 354 360 4 8 12 14 13 14 15 14 23 45 62 72 74 78 87 97 105 121 137 104 25 66 77 65 95 36 14 4 1 17 38 45 56 54 67 82 70 72 74 72 72 55 66 101 102 99 95 99 109 213 107 51 67 126 49 95 50 9 18 360 343 325 43 77 308 334 219 300 329 297 253 263 102 124 103 100 92 92 105 102 105 110 105 114
352 347 350 353 358 5 9 14 16 16 16 15 31 61 75 82 79 79 84 91 103 116 132 84 60 98 85 101 164 28 12 9 13 20 29 38 67 70 63 77 83 82 79 72 70 67 79 99 93 93 71 76 102 48 46 16 37 77 26 70 50 46 330 359 5 351 71 60 347 88 218 281 244 247 217 223 264 169 138 127 136 129 135 136 137 143 140 149
359 349 349 350 352 359 5 13 16 20 24 24 53 76 79 85 86 83 83 90 97 106 120 90 76 97 80 89 179 9 7 13 16 15 14 26 44 44 45 76 86 84 87 75 67 70 74 84 78 58 325 21 45 57 32 0 23 30 61 320 353 104 265 336 16 24 78 286 2 68 221 289 236 219 205 205 145 165 166 156 168 173 173 170 169 171 165 167
357 350 348 346 346 354 1 11 21 60 64 59 75 83 86 92 93 87 82 82 81 84 94 64 40 89 93 6 326 357 5 8 7 10 14 23 28 18 20 78 90 95 92 64 58 63 52 61 70 34 10 20 31 66 51 18 4 358 73 178 323 54 354 320 39 35 30 277 0 41 193 259 256 206 190 184 149 159 176 181 188 189 191 190 192 187 178 177
1 355 350 345 345 348 356 11 51 108 90 87 88 83 81 80 88 110 94 82 77 72 70 47 28 87 80 350 348 344 342 350 357 8 16 22 23 22 35 90 88 94 90 41 37 31 27 42 66 36 45 33 22 77 82 16 333 333 31 64 313 335 355 315 272 5 11 11 14 23 124 216 282 215 184 184 163 163 187 198 198 198 203 201 202 207 199 195
17 10 3 355 349 351 357 12 87 136 116 104 96 87 80 73 69 74 75 107 89 53 57 31 28 92 32 355 354 311 311 331 355 7 14 17 19 28 39 58 40 2 4 22 31 23 13 28 55 59 29 18 21 45 100 196 235 265 315 21 338 322 300 303 291 339 4 27 42 13 321 246 283 242 214 206 175 176 197 205 211 213 215 216 214 216 213 212
29 23 18 8 357 358 2 16 92 154 147 127 113 99 82 69 64 60 54 63 68 38 54 352 18 116 287 324 317 316 310 325 4 10 11 9 1 29 35 37 40 35 34 22 14 14 24 34 41 52 2 349 352 13 142 179 161 164 199 156 168 293 282 270 290 334 7 44 27 347 294 265 245 227 221 213 186 190 209 211 221 225 220 222 219 220 220 220
27 25 23 16 8 5 9 32 79 162 167 161 158 116 47 49 43 36 35 49 69 74 97 265 30 101 349 316 327 342 347 339 15 11 7 2 348 24 23 18 37 50 50 35 335 352 58 63 42 1 278 291 290 263 219 166 122 133 119 118 166 226 305 283 300 338 16 87 334 278 290 272 238 225 219 202 189 202 212 214 222 223 218 219 217 219 220 221
11 10 13 12 10 10 14 42 61 159 180 191 200 196 135 163 68 194 11 44 51 46 71 133 133 77 1 334 346 356 9 326 7 8 6 4 0 28 6 9 44 40 12 278 298 341 53 69 8 281 255 261 288 262 180 116 87 105 118 111 91 259 294 269 164 342 350 157 274 334 291 266 237 224 216 174 197 217 209 209 220 220 218 221 218 222 223 222
358 352 360 3 6 14 25 54 59 136 183 197 188 125 141 158 128 146 137 87 21 22 57 53 56 32 325 37 4 1 43 11 359 359 1 5 22 37 7 34 63 47 340 3 12 15 50 58 309 289 253 246 326 43 100 96 83 73 92 99 35 305 296 291 265 353 10 247 255 227 274 269 242 214 215 196 209 227 215 214 222 216 217 220 217 221 219 216
360 353 356 357 3 17 43 63 65 112 150 170 151 115 120 127 132 138 105 98 66 3 28 32 53 16 349 30 6 8 57 33 350 340 353 3 25 48 64 52 63 61 11 37 90 84 70 340 317 307 164 131 19 25 52 68 64 61 77 87 311 307 350 302 283 349 14 31 202 186 244 276 265 210 231 214 211 234 225 224 232 221 220 220 219 220 213 213
3 360 358 356 4 22 67 72 73 94 113 134 122 120 135 129 133 132 89 89 75 355 3 28 122 52 19 6 357 12 85 51 37 332 350 10 38 32 73 80 69 60 35 60 89 95 101 278 345 57 74 103 46 22 43 52 23 357 98 120 258 302 283 239 277 340 359 30 63 115 304 293 244 219 249 218 198 238 233 228 238 231 227 227 228 227 218 216
5 359 356 356 5 37 110 82 77 92 99 112 117 130 138 131 133 123 90 74 22 316 337 15 113 33 11 345 352 10 120 51 88 331 346 15 16 15 76 96 81 70 259 79 80 87 74 298 77 65 40 58 101 45 27 41 25 331 252 174 213 276 262 261 302 359 23 3 352 38 3 306 285 243 251 232 201 239 228 227 239 233 225 224 227 228 221 219
3 355 355 358 11 52 145 88 85 101 88 90 124 139 142 139 139 105 83 68 16 310 348 12 32 10 352 343 343 352 88 4 308 4 7 12 353 124 84 346 67 113 205 136 80 94 38 0 63 99 74 55 67 62 346 105 76 7 229 177 245 273 257 266 272 91 48 311 306 57 84 273 302 289 257 271 257 251 238 235 240 234 225 221 222 224 219 217
3 357 358 3 15 30 186 149 115 110 85 115 138 142 147 151 144 91 67 44 5 308 355 332 334 11 355 341 347 75 73 311 294 23 17 8 345 99 80 4 49 84 182 108 66 81 355 4 24 52 62 49 51 37 291 117 90 344 214 157 312 262 197 199 130 113 176 275 335 25 97 247 292 280 255 287 271 264 254 245 244 235 227 223 222 223 218 216
6 2 4 9 22 45 97 120 116 97 111 142 144 143 154 162 172 78 75 61 346 348 16 305 327 5 348 355 17 77 114 315 16 358 349 13 11 34 76 58 111 116 332 103 117 236 346 12 14 35 46 42 42 280 256 127 97 275 221 21 350 122 138 120 100 90 18 19 332 319 64 3 276 270 291 353 283 275 260 247 243 235 229 225 224 224 219 217
8 5 6 11 32 68 84 96 104 112 132 145 143 148 162 162 87 58 72 115 313 11 187 318 350 342 345 5 18 43 18 1 70 315 334 22 27 36 80 94 119 112 29 95 138 199 157 28 136 92 59 358 267 262 201 143 313 280 143 103 63 76 72 72 88 92 46 31 277 271 37 74 276 277 301 33 271 261 257 253 245 234 229 225 224 224 220 217
6 4 5 9 42 93 88 87 100 124 136 145 149 151 150 75 56 64 53 219 324 345 261 13 10 334 4 23 2 6 26 12 336 332 350 20 8 26 80 147 101 90 31 46 79 241 308 309 184 107 61 252 267 274 182 172 267 50 96 67 41 38 43 53 50 79 59 333 262 260 251 105 296 283 241 207 220 215 223 255 263 245 231 225 224 222 218 215
12 10 10 16 54 132 109 94 111 134 138 144 151 140 109 47 62 88 80 257 329 340 5 20 356 4 27 43 3 353 18 355 339 8 18 5 2 15 34 22 51 56 18 21 24 340 350 12 310 305 315 344 0 325 187 194 265 89 64 48 68 344 13 26 354 42 77 266 258 274 328 121 231 266 242 229 236 216 201 228 251 254 243 229 224 222 218 216
27 22 24 36 65 103 115 125 129 134 138 143 141 100 82 59 32 97 284 311 347 338 27 349 317 15 23 35 19 341 340 349 0 43 37 18 34 26 23 36 82 31 8 340 351 347 353 331 306 317 304 43 32 356 337 351 13 41 37 52 67 349 7 13 331 359 214 239 251 311 348 223 232 254 254 247 245 231 216 219 231 245 249 240 231 228 224 219
42 37 39 49 71 95 108 124 131 130 140 140 113 54 74 86 210 221 290 336 10 326 72 282 317 9 17 26 12 331 344 359 356 35 66 82 62 32 3 46 118 68 13 280 5 0 335 308 335 4 331 21 70 88 346 330 1 19 52 72 74 74 38 323 285 324 282 266 290 317 335 281 269 271 249 241 246 236 222 230 239 246 254 260 255 245 239 230
51 47 51 57 71 90 103 117 127 132 138 119 74 57 73 72 227 188 293 268 260 342 24 36 339 5 40 48 342 313 29 26 349 25 26 42 52 18 338 357 32 81 101 79 56 65 38 300 316 28 315 11 66 116 156 150 38 12 135 111 98 141 132 253 239 248 284 289 300 309 264 216 237 280 250 239 262 279 244 254 267 265 263 279 292 276 253 240
51 45 49 53 60 76 93 112 127 132 125 76 60 71 103 228 233 170 239 250 258 334 306 52 58 47 9 353 329 322 138 307 2 40 26 38 80 47 341 329 357 66 99 79 298 142 106 250 260 294 290 55 53 241 125 100 67 332 128 86 52 178 148 148 199 191 226 317 298 270 235 218 224 273 280 271 283 286 275 275 281 270 268 286 284 267 251 246
42 38 43 42 45 60 75 105 122 118 86 75 65 63 158 203 202 177 195 218 157 173 314 351 57 63 348 318 336 2 6 310 14 45 26 48 169 212 241 254 282 68 114 117 196 159 60 279 276 322 338 51 68 235 71 64 112 34 50 78 232 168 119 103 236 323 71 14 284 261 259 288 313 292 299 355 294 278 271 265 258 259 268 270 261 258 249 246
30 41 41 30 31 46 64 100 114 78 62 77 82 108 207 203 172 178 182 142 153 109 91 80 351 54 341 309 316 324 333 324 16 47 32 20 191 191 205 251 219 174 181 153 180 185 138 286 288 66 101 306 326 101 44 46 121 91 49 205 195 80 83 92 353 352 39 284 275 290 266 291 336 295 315 355 309 279 259 242 247 254 251 245 249 250 248 246
9 71 45 19 19 36 61 87 83 59 70 69 80 153 194 194 170 181 180 167 174 82 86 132 198 83 189 209 296 300 332 342 357 37 73 307 265 162 163 229 168 190 240 155 113 142 125 317 305 324 147 291 4 79 9 0 65 117 165 156 107 96 136 51 65 329 351 285 283 301 289 272 208 228 287 301 264 263 254 221 221 236 230 232 246 251 252 252
2 91 31 6 12 36 48 71 63 55 72 78 106 171 170 197 222 187 173 179 135 94 90 173 179 79 159 165 240 287 345 10 352 35 107 171 310 166 152 179 173 186 266 137 128 179 115 106 289 289 245 304 4 96 227 298 43 61 61 41 40 129 166 175 102 170 212 266 285 316 324 276 219 207 232 244 238 238 240 220 215 230 226 224 237 245 251 253
70 89 351 353 12 42 41 56 60 50 68 115 169 177 132 189 213 146 171 220 187 117 138 181 151 107 181 197 220 249 14 52 151 81 184 212 272 236 190 160 160 158 5 51 103 141 59 111 238 294 324 308 282 207 195 181 160 106 55 356 328 94 141 211 47 132 145 170 229 297 305 272 242 189 214 246 251 233 227 225 223 230 231 228 229 235 244 248
68 96 326 349 359 354 40 54 55 50 89 114 145 157 123 162 161 118 195 213 222 198 158 154 143 142 166 169 211 199 81 14 163 164 246 235 213 251 245 159 159 158 106 60 91 166 91 141 208 294 321 262 246 246 205 183 167 155 172 191 184 144 123 111 305 306 107 157 191 169 277 276 261 166 219 251 259 246 237 238 249 247 239 238 235 229 233 241
66 123 323 350 5 140 67 58 36 42 103 112 116 139 108 117 130 147 186 182 213 194 100 115 131 140 153 158 183 178 148 161 207 190 236 225 204 220 238 135 140 139 125 132 234 214 143 107 149 271 261 242 262 301 317 211 134 114 150 178 145 132 124 132 219 251 150 183 186 108 261 273 259 158 220 250 246 256 247 232 256 265 256 251 252 248 243 243
84 162 344 1 57 126 70 63 342 22 75 162 72 88 30 99 127 148 185 179 201 167 58 69 158 138 175 174 150 166 181 187 187 195 220 236 235 223 175 142 141 124 113 145 238 218 111 81 18 285 289 306 314 340 11 19 73 92 248 153 135 152 142 148 176 188 183 203 159 102 258 267 270 179 225 239 243 264 258 230 241 261 268 262 257 262 258 251
111 169 10 12 43 167 78 108 153 72 140 155 75 56 337 140 138 137 198 226 196 152 119 145 190 130 163 140 115 171 200 187 204 224 205 211 241 207 137 168 179 152 157 192 170 160 205 123 76 341 335 339 341 350 350 341 315 217 233 172 146 113 99 108 137 110 241 215 166 152 253 257 262 232 227 246 279 283 267 238 224 241 259 264 261 263 260 257
89 133 333 14 40 78 108 157 146 138 163 120 99 143 2 66 145 175 176 180 173 160 144 160 173 97 112 101 78 149 206 219 233 249 70 226 253 280 123 195 210 185 207 210 123 130 181 193 137 108 305 289 297 298 289 271 249 244 188 178 193 140 132 153 128 115 240 224 155 178 246 263 283 283 272 280 289 286 276 256 230 235 248 255 259 261 260 259
100 86 301 353 29 58 70 102 103 117 154 135 109 173 155 110 284 275 144 141 157 138 100 85 124 88 81 107 118 214 248 277 31 326 223 235 257 298 122 177 224 254 175 131 71 82 99 228 207 180 199 221 237 248 235 147 246 270 249 207 199 186 167 137 110 173 208 170 184 231 247 277 291 283 281 287 281 273 274 269 258 250 250 251 252 255 258 257
108 119 128 13 13 43 42 25 58 92 147 146 124 180 175 153 293 324 110 185 174 123 78 65 137 148 164 166 161 218 238 208 55 223 217 223 254 298 222 152 184 235 162 125 1 98 95 279 239 202 223 239 246 258 264 196 252 260 258 231 198 192 173 163 202 217 149 115 256 251 232 255 275 276 280 285 283 278 276 275 272 266 261 259 257 258 260 259
87 159 165 107 94 105 75 70 102 90 85 96 92 142 156 151 184 186 182 40 55 165 166 136 229 206 187 170 158 183 223 232 239 230 218 227 269 326 319 174 172 192 160 96 337 113 123 257 236 197 245 258 261 268 269 258 255 257 258 248 220 196 183 199 224 222 157 194 255 262 236 242 266 277 280 279 282 286 285 283 282 278 272 266 263 265 264 263
89 122 40 15 102 153 143 88 116 103 80 73 82 166 167 172 199 216 187 91 1 281 188 213 254 225 188 177 147 159 208 205 255 253 212 190 215 178 260 239 169 160 151 117 311 146 153 245 229 161 277 271 259 264 264 253 264 269 261 249 229 213 205 215 233 230 205 230 253 266 271 269 269 272 276 280 285 285 284 285 283 276 271 267 265 263 262 261
145 155 151 59 71 107 28 33 91 96 65 63 114 196 173 174 196 223 186 149 178 241 180 212 238 196 166 180 161 197 217 191 211 245 184 165 231 206 208 222 158 122 150 138 191 232 203 252 165 90 305 280 267 287 283 238 244 268 271 260 237 222 220 228 240 237 225 242 253 261 271 273 269 266 271 279 283 281 278 277 275 269 264 264 263 260 258 260
110 138 143 112 74 356 356 31 80 101 102 186 181 186 191 199 198 187 187 187 173 174 184 195 190 131 99 176 202 239 235 194 209 228 183 174 218 200 204 217 143 138 177 178 153 138 180 256 16 63 323 285 351 7 311 275 259 265 272 268 248 219 213 224 230 217 205 225 247 260 263 262 266 274 272 261 262 266 268 269 271 268 261 257 257 259 259 256
100 89 121 106 83 323 3 78 72 111 203 229 178 167 202 225 203 172 171 237 166 173 188 177 157 133 113 210 226 240 232 205 223 235 197 193 227 199 192 187 146 144 165 170 151 124 152 175 97 73 290 275 302 327 302 304 302 277 261 253 228 196 200 227 242 223 203 203 225 239 241 253 272 299 287 272 266 262 262 263 263 266 267 260 251 254 259 260